Other Public Products
Issued by NWS Charleston, SC

Current Version | Previous Version | Graphics & Text | Print | Product List | Glossary Off
Versions: 1 2 3 4 5 6 7 8 9 10 11 12 13 14 15 16 17 18 19 20 21 22 23 24 25 26 27 28 29 30 31 32 33 34 35 36 37 38 39 40 41 42 43 44 45 46 47 48 49 50

973
FPUS82 KCHS 252026
OPUCHS

TEST...KCHS/KSAV Gateway Observations...TEST
National Weather Service Charleston SC
300 PM EST SAT FEB 25 2017

NOTE: "fair" indicates few or no clouds below 12,000 feet with no
significant weather and/or obstructions to visibility.

SCZ050-WAZ558-NCZ071-TXZ119-213-PAZ071-DCZ001-FLZ074-172-MI076-
NYZ176-178-MAZ016-IL014-TNZ027-NJZ106-GAZ044-MD014-252100-
...Gateway Observations for Charleston International...

CITY           SKY/WX    TMP DP  RH WIND       PRES   REMARKS
Chas Airport   MOSUNNY   81  55  40 W15G23    29.73S
Seattle        CLOUDY    40  33  76 SW6       30.21F WCI  36
Charlotte      MOSUNNY   77  29  17 SW26G37   29.62F
Dallas DFW     SUNNY     51  19  28 VRB6      30.18F
Dallas Love    SUNNY     53  21  28 VRB7      30.19F
Philladelphia  MOSUNNY   72  55  55 S18G24    29.47F
Wash National  TSTM      65  60  84 W26G46    29.50R
Baltimore      TSTM      63  60  90 SW12      29.44R FOG
Miami          MOSUNNY   84  62  47 VRB6      29.89S
Detroit        CLOUDY    33  19  56 W21G30    29.72R WCI  21
Newark         PTSUNNY   66  55  67 SE15G24   29.53F
Laguardia      CLOUDY    65  55  70 S24       29.55F
J F K          CLOUDY    57  53  86 S17       29.58F
Boston Logan   CLOUDY    65  54  67 S12       29.64F
Ft. Lauderdale MOSUNNY   83  68  60 SE9       29.88R
Chicago O`Hare FLURRIES  26  13  57 W20G28    29.88R WCI  12
Chicago Midway FLURRIES  27  13  55 W16G28    29.89R WCI  15
Houston Bush   SUNNY     68  31  25 N8        30.11F
Houston Hobby  SUNNY     68  28  22 N7        30.09F
Nashville      MOSUNNY   47  16  29 W15       30.02S
Atlanta        SUNNY     63  19  18 W22G30    29.87S

$$

GAZ044-118-TXZ119-213-NCZ071-DCZ001-MDZ014-506-PAZ021-071-NJZ106-
NYZ176-178-MAZ106-OHZ011-021-055-MIZ076-KYZ091-ILZ014-INZ047-
MNZ060-ONZ431-252100-
...Gateway Observations for Savannah International...

CITY           SKY/WX    TMP DP  RH WIND       PRES   REMARKS
Savannah Arpt  PTSUNNY   77  57  50 W15G21    29.78F
Atlanta        SUNNY     63  19  18 W22G30    29.87S
Charlotte      MOSUNNY   77  29  17 SW26G37   29.62F
Dallas DFW     SUNNY     51  19  28 VRB6      30.18F
Houston Bush   SUNNY     68  31  25 N8        30.11F
Wash National  TSTM      65  60  84 W26G46    29.50R
Wash Dulles    CLOUDY    54  49  83 NW13      29.52R
Baltimore      TSTM      63  60  90 SW12      29.44R FOG
Philadelphia   MOSUNNY   72  55  55 S18G24    29.47F
Newark         PTSUNNY   66  55  67 SE15G24   29.53F
Laguardia      CLOUDY    65  55  70 S24       29.55F
J F K          CLOUDY    57  53  86 S17       29.58F
Boston         CLOUDY    65  54  67 S12       29.64F
Pittsburg      PTSUNNY   43  31  62 W20G30    29.65R
Akron          LGT SNOW  36  26  67 W20G33    29.72R WCI  25
Cleveland      FLURRIES  37  24  59 W31G40    29.74R WCI  24
Cincinnati     CLOUDY    33  19  56 W23G29    29.92R WCI  21
Columbus       CLOUDY    33  24  69 W21G32    29.87R WCI  21
Detroit        CLOUDY    33  19  56 W21G30    29.72R WCI  21
Chicago O`Hare FLURRIES  26  13  57 W20G28    29.88R WCI  12
Minneapolis    MOSUNNY   32  10  40 W14       29.90F WCI  22
Indianapolis   PTSUNNY   31  17  56 W20       29.93S WCI  19
Toronto Canada PTSUNNY   39  27  60 W26G36    29.52R WCI  28

$$




USA.gov is the U.S. government's official web portal to all federal, state and local government web resources and services.